Content
SEND FEEDBACK

Daily
Averages
Monthly
Summary
United States of America

ST. LOUIS - GATEWAY ARCH, MISSOURI


Home > North America > United States > Missouri
Elevation: 450 feet     Latitude: 38 37N     Longitude: 090 11W

WEATHER
 
SELECT A DAY
Number of Records: 186,092;   Date Range: 1/1/95 - 7/29/14
 
SHARE

PRINT THIS DATA

[ ← Previous Day ]
WEATHER ALMANAC - FEBRUARY 11, 2013
[ Next Day → ]
[ °C ]   °F
Weather ElementAverageHighLow
Temperature41.8 °F50 °F (2:53 pm)30.9 °F (10:53 pm)
Dewpoint25.5 °F28 °F (12:53 pm)21.9 °F (6:53 pm)
Humidity53.9 %85 % (10:53 pm)36 % (3:53 pm)
Barometer30.04 in30.17 in (11:53 pm)29.87 in (1:53 am)
Wind Speed10.3 mph18.4 mph (1:53 am)
Wind Gust29.9 mph (2:53 am)
Weather ElementAverage
Visibility10 mi
Wind DirectionSSW (209.6 °)

Weather ElementTotal
Precipitation---
Heating Degree Days24.6 (Base 65)
Averaged from 23 records on February 11, 2013
WEATHER CONDITIONS BREAKOUT
WIND DIRECTION BREAKOUT
WEATHER BY HOUR - FEBRUARY 11, 2013
[ °C ]   °F
Local TimeTemperatureDewpointHumidityBarometerVisibilityWind DirectionWind SpeedGust SpeedPrecipitationEventsConditions
1:53 AM43.0 °F27.0 °F53 %29.87 in10.0 miWest (270°)18.4 mph27.6 mphClear
2:53 AM41.0 °F26.1 °F55 %29.89 in10.0 miWest (260°)15.0 mph29.9 mphPartly Cloudy
3:53 AM39.9 °F23.0 °F51 %29.91 in10.0 miWest (280°)13.8 mphClear
4:53 AM37.9 °F24.1 °F57 %29.93 in10.0 miWest (260°)8.1 mph18.4 mphClear
5:53 AM39.0 °F24.1 °F55 %29.95 in10.0 miWest (260°)11.5 mph19.6 mphClear
6:53 AM37.9 °F25.0 °F60 %29.97 in10.0 miWest (260°)13.8 mph20.7 mphClear
7:53 AM39.0 °F25.0 °F57 %30.01 in10.0 miWest (270°)13.8 mph23.0 mphClear
8:53 AM39.9 °F27.0 °F60 %30.02 in10.0 miWest (270°)13.8 mph24.2 mphPartly Cloudy
9:53 AM42.1 °F26.1 °F53 %30.04 in10.0 miWest (280°)10.4 mph25.3 mphClear
10:53 AM45.0 °F27.0 °F49 %30.06 in10.0 miWNW (300°)17.3 mph24.2 mphClear
11:53 AM46.9 °F27.0 °F46 %30.06 in10.0 miWNW (290°)16.1 mph23.0 mphClear
12:53 PM48.0 °F28.0 °F46 %30.06 in10.0 miWSW (250°)15.0 mph20.7 mphClear
1:53 PM48.9 °F27.0 °F43 %30.06 in10.0 miWest (260°)12.7 mph23.0 mphClear
2:53 PM50.0 °F26.1 °F39 %30.06 in10.0 miWest (280°)15.0 mph23.0 mphClear
3:53 PM50.0 °F24.1 °F36 %30.07 in10.0 miWest (280°)17.3 mph23.0 mphClear
4:53 PM48.9 °F24.1 °F38 %30.06 in10.0 miWest (270°)13.8 mphClear
5:53 PM46.0 °F24.1 °F42 %30.08 in10.0 miWest (260°)6.9 mphClear
6:53 PM45.0 °F21.9 °F40 %30.10 in10.0 miCalmClear
7:53 PM43.0 °F23.0 °F45 %30.12 in10.0 miSW (220°)4.6 mphClear
8:53 PM35.1 °F27.0 °F72 %30.14 in10.0 miCalmClear
9:53 PM33.1 °F26.1 °F75 %30.15 in10.0 miCalmClear
10:53 PM30.9 °F27.0 °F85 %30.16 in10.0 miCalmClear
11:53 PM30.9 °F26.1 °F82 %30.17 in10.0 miCalmClear
Hourly data recorded from KCPS, located miles away from St. Louis - Gateway Arch, Missouri







STORIES FROM OUR PARTNERS